GEFSMA_500_meanwind_270.txt.gz
Wind_Speed
5 6 7 6 6 7 8 9 9 9 10 10 10 11 11 11 11 11 12 12 12 13 14 14 14 15 15 15 15 16 16 16 17 18 18 18 19 18 18 18 18 18 18
6 6 7 7 7 7 8 9 9 9 10 10 11 11 11 11 11 12 12 12 12 13 13 14 14 14 15 14 14 15 15 16 17 18 18 18 18 18 19 19 19 19 19
7 7 7 7 7 7 8 9 9 9 9 10 10 11 11 12 12 12 11 12 12 12 12 13 14 14 14 14 14 15 16 16 16 16 17 17 17 18 18 18 18 19 19
8 8 8 8 8 8 8 9 9 9 9 10 10 11 11 12 12 11 12 12 12 12 12 13 13 13 13 14 14 15 15 15 15 16 17 17 17 17 18 18 18 18 19
9 9 9 9 9 9 9 9 9 9 9 9 10 10 11 11 11 11 12 13 13 13 12 13 13 13 13 13 14 14 15 15 15 15 15 16 17 17 18 19 18 19 19
9 9 9 9 9 9 9 9 9 9 9 9 9 9 10 10 11 11 11 12 12 13 13 13 13 13 14 14 14 15 15 15 14 14 15 16 16 17 18 18 18 18 18
10 10 10 10 10 9 10 9 9 9 8 9 9 9 10 10 11 12 12 12 13 13 13 12 13 13 14 14 14 14 14 14 15 15 15 15 15 14 15 16 17 17 18
11 11 11 10 10 9 10 10 9 9 9 9 9 9 10 10 10 11 11 12 12 12 12 12 12 12 13 13 13 14 14 14 15 14 14 14 14 13 13 14 15 17 17
12 12 11 11 11 10 10 10 10 10 10 10 9 9 10 10 10 10 10 11 11 11 11 11 12 12 12 12 13 13 13 14 14 13 13 13 13 13 13 14 15 15 17
12 12 12 12 11 11 11 11 11 10 10 10 10 10 10 10 10 10 11 11 11 11 11 11 12 12 12 12 12 12 13 13 14 14 14 13 13 13 13 14 14 15 15
13 13 13 13 12 12 11 11 11 12 12 12 11 11 12 11 11 11 11 10 10 10 10 11 11 12 12 12 12 12 12 13 14 14 13 13 12 13 14 13 13 14 14
13 13 13 13 13 13 13 12 12 13 13 12 12 12 12 12 12 11 11 11 11 11 11 11 12 12 12 12 12 12 13 14 14 15 14 14 14 14 14 14 15 15 15
14 14 13 13 14 14 13 13 14 13 13 13 13 13 13 13 12 12 11 12 12 12 12 13 12 12 13 12 13 13 13 14 15 15 14 14 13 14 14 14 14 15 15
15 14 14 14 14 15 14 14 14 14 14 14 14 15 15 14 14 14 13 13 13 13 13 14 14 13 13 13 14 14 14 15 15 15 15 15 14 14 14 14 14 14 15
15 15 15 15 15 15 15 15 16 15 15 16 16 16 16 16 15 15 15 15 15 14 14 14 14 14 14 14 14 14 15 15 15 15 16 16 15 15 14 14 15 15 15
17 16 16 16 16 16 16 16 16 16 17 17 17 17 17 17 17 17 16 17 17 16 15 15 15 15 15 15 15 16 16 16 16 16 16 16 15 15 15 15 15 16 16
18 18 18 17 17 17 17 17 17 17 17 17 17 17 18 18 19 18 18 18 18 18 17 17 17 17 17 16 16 17 16 16 16 17 17 17 17 16 16 16 16 16 17
20 20 19 19 19 18 18 18 18 18 18 18 18 19 19 19 20 20 19 19 19 19 18 18 18 18 18 18 18 18 18 18 18 18 18 18 18 17 17 17 17 17 17
21 21 20 20 19 19 19 19 19 20 20 20 20 20 21 21 21 21 20 20 20 20 20 20 20 20 19 19 19 19 18 18 18 18 19 19 19 18 18 19 18 18 18
22 22 21 21 21 21 21 21 21 21 21 21 22 22 22 22 22 21 21 21 21 21 21 21 21 21 21 20 19 19 19 18 18 19 19 20 20 20 20 19 19 19 19
23 23 23 22 22 22 22 22 22 22 22 22 23 24 24 23 23 22 22 22 22 22 22 22 22 22 21 21 20 20 19 19 19 20 20 20 20 20 20 20 20 20 20
25 24 24 24 24 24 23 23 23 23 23 23 24 25 25 25 24 23 23 23 23 23 23 22 22 22 22 21 21 20 20 20 20 20 21 21 21 20 21 21 20 20 21
26 26 25 25 25 25 25 24 24 24 24 25 25 25 26 25 24 24 24 23 24 24 23 23 23 23 23 22 22 22 22 22 21 21 21 21 21 21 21 20 20 21 21
26 26 26 26 26 26 26 26 26 26 26 26 25 25 25 26 26 26 25 24 24 24 24 24 24 23 23 23 23 23 23 23 23 23 23 22 22 22 21 21 20 20 21
27 27 27 27 27 28 27 27 27 26 26 26 26 26 26 26 26 26 26 25 25 25 25 25 24 24 24 24 24 24 24 24 24 24 24 24 23 23 23 22 22 22 23
28 27 27 27 27 27 27 27 26 26 26 26 26 26 26 26 26 26 26 26 26 26 26 26 26 25 26 26 26 26 26 26 26 25 25 25 25 25 24 24 24 24 24

GEFSMA_500_meanwind_276.txt.gz
Wind_Speed
5 6 6 6 7 7 8 8 9 9 10 10 11 11 11 11 11 11 11 12 12 13 14 15 15 16 16 16 17 17 17 17 18 18 18 18 18 18 18 18 19 19 19
5 6 6 7 7 7 8 9 9 10 10 10 10 11 11 12 12 12 12 12 12 13 14 14 14 15 15 16 16 16 17 17 17 18 18 18 18 18 19 19 19 19 19
6 6 6 7 7 8 8 9 9 9 9 10 10 10 11 11 12 12 13 13 13 13 14 14 14 14 14 15 16 16 17 17 18 18 18 19 19 19 19 20 20 20 20
7 7 7 7 8 8 8 8 9 9 9 9 10 10 11 11 12 13 14 14 14 14 14 15 15 15 15 15 16 16 17 17 18 18 18 19 19 19 19 20 21 21 21
7 8 8 8 8 8 8 9 9 9 9 10 10 10 11 11 12 13 14 14 14 14 14 14 14 15 16 16 17 17 17 18 18 18 18 19 19 19 19 20 20 20 20
9 9 9 9 8 8 9 9 9 9 9 10 10 11 11 11 12 12 12 13 13 14 14 14 14 15 15 16 16 17 17 18 18 19 19 19 19 19 19 20 20 20 20
9 9 9 9 9 9 9 9 9 10 10 10 11 11 12 12 12 12 12 12 12 13 13 14 15 15 15 15 16 16 17 17 18 18 18 18 18 18 18 19 19 20 20
9 9 9 9 9 9 9 10 10 10 11 10 11 11 12 12 12 12 12 12 12 13 13 14 14 15 15 15 16 16 16 16 16 16 17 17 18 18 19 19 19 19 20
10 10 10 10 10 10 10 10 10 10 11 11 11 12 12 12 12 12 12 12 13 13 14 13 14 14 14 15 15 15 15 15 16 16 17 17 17 18 18 18 18 19 18
11 11 11 11 11 11 11 11 12 12 12 12 12 12 12 12 12 12 13 13 13 13 13 13 13 14 14 14 14 14 14 15 15 15 15 16 16 17 17 17 17 17 18
12 12 12 12 12 12 13 13 12 13 13 13 13 13 13 13 13 12 12 13 13 13 13 13 13 14 14 14 14 14 15 15 15 15 15 16 16 15 16 16 16 17 17
13 13 13 13 13 13 14 14 13 13 14 14 14 14 14 14 14 13 13 13 13 13 13 13 14 14 14 15 15 15 16 16 16 16 16 16 16 16 16 16 16 16 16
14 14 14 14 14 14 15 15 14 13 13 14 14 15 15 15 15 15 14 14 14 15 15 15 15 15 15 15 16 17 17 17 16 16 16 16 17 17 17 17 17 16 16
16 16 16 16 16 15 15 15 15 15 14 15 15 15 16 16 16 16 16 15 15 16 16 17 17 17 17 17 17 18 17 17 17 16 16 16 17 17 17 17 17 17 17
16 17 17 16 16 16 16 16 16 17 16 16 16 17 17 17 16 17 17 17 17 17 17 18 18 19 18 19 19 19 18 18 17 17 17 17 17 17 17 17 18 18 19
17 17 17 17 17 17 17 17 17 17 17 17 17 17 17 17 18 17 18 18 19 19 19 19 20 20 20 20 21 20 19 18 18 18 17 17 17 18 18 18 18 19 19
19 19 18 18 18 18 18 18 18 17 18 18 18 18 18 18 19 19 19 20 20 20 20 20 20 20 21 21 21 20 19 18 18 17 17 17 18 18 19 19 19 20 20
20 20 20 19 19 19 19 19 19 18 19 19 19 19 20 20 20 20 20 20 20 20 20 20 21 21 21 21 20 20 20 20 19 18 19 19 19 19 19 20 19 20 20
21 22 21 20 20 20 20 20 20 19 20 20 20 20 21 21 21 21 21 21 21 21 21 21 21 22 21 21 21 20 20 20 20 20 19 19 20 20 20 20 20 21 21
23 23 22 22 21 21 21 21 21 21 21 21 21 21 22 21 21 21 22 22 22 21 22 22 22 21 21 21 21 21 22 22 21 21 20 20 20 20 20 21 20 20 20
24 24 23 23 23 22 22 23 23 22 22 22 22 22 22 22 21 21 22 22 22 22 22 22 22 22 22 21 21 22 22 22 21 21 21 21 21 21 21 21 21 21 21
25 25 24 24 24 24 23 23 23 23 23 23 23 23 23 23 22 22 22 22 22 22 22 22 23 22 22 22 22 21 22 22 22 22 22 22 21 21 21 21 21 21 22
26 26 26 26 25 25 24 25 24 24 23 24 24 24 24 24 24 24 23 23 23 23 23 23 23 22 22 22 22 22 22 22 22 22 22 22 22 22 22 22 22 22 22
26 27 27 26 26 26 26 26 25 25 25 25 25 25 25 24 25 25 25 25 25 25 24 24 24 23 23 23 23 23 23 23 22 22 23 23 22 23 23 23 23 23 23
27 27 27 26 27 27 27 27 27 27 26 26 26 27 26 26 26 27 26 26 25 25 25 25 25 25 24 24 23 23 23 24 24 24 24 23 23 23 24 24 24 24 24
28 27 27 27 28 28 28 28 28 28 28 28 28 28 27 27 27 28 28 27 26 26 26 26 26 26 25 25 25 24 25 25 25 25 25 25 25 25 25 25 25 25 25

GEFSMA_500_meanwind_282.txt.gz
Wind_Speed
7 7 8 8 8 8 8 8 8 9 9 10 10 10 10 10 11 12 12 12 12 13 13 13 13 13 14 14 14 15 16 16 16 16 15 15 16 17 17 17 17 18 18
8 8 8 9 9 9 9 9 8 9 9 10 10 10 10 11 12 11 11 12 12 12 13 13 14 14 14 14 14 15 15 16 16 16 16 16 17 17 17 18 18 18 18
9 9 9 9 9 9 9 9 9 9 10 10 10 10 10 10 10 10 11 11 12 13 13 13 14 14 15 15 15 14 15 16 16 16 16 16 17 17 18 18 18 19 19
10 10 9 9 9 9 9 9 9 9 10 10 9 9 10 10 10 11 11 11 12 12 13 14 14 14 15 15 15 15 16 16 16 16 16 17 17 18 18 19 19 20 20
11 11 10 10 10 10 9 9 10 10 11 11 10 10 10 10 10 11 11 12 12 13 13 14 14 15 15 15 16 16 16 16 16 17 17 17 18 18 19 19 20 20 21
12 12 11 11 11 11 11 11 11 12 12 12 11 12 12 12 12 12 12 12 13 13 14 14 14 14 14 15 16 16 16 15 15 16 17 17 18 18 19 19 19 20 20
13 12 12 12 12 12 11 11 12 12 12 13 13 13 13 13 13 13 13 13 13 14 14 14 14 15 15 15 15 15 15 15 15 16 17 17 18 18 18 19 20 20 20
13 13 13 13 13 13 13 13 13 13 13 13 13 13 13 13 14 13 13 14 14 14 14 14 14 15 15 15 15 14 15 15 16 16 17 17 18 19 19 19 20 20 20
14 14 14 14 14 14 14 14 14 14 14 14 14 13 14 14 14 14 15 15 14 15 14 14 15 15 15 15 15 15 15 16 17 17 17 17 18 19 19 20 21 20 20
15 15 15 15 15 15 14 14 14 14 14 14 14 14 14 15 15 15 15 15 15 15 15 15 15 15 15 15 16 15 16 16 16 17 18 19 19 20 20 20 20 20 20
16 15 15 15 15 15 15 15 15 15 15 15 15 15 15 15 15 15 16 16 16 15 15 15 14 15 15 16 16 16 16 16 17 17 18 19 19 20 20 21 21 21 20
16 16 16 16 16 16 16 16 16 16 16 16 16 16 16 16 16 17 16 16 16 16 16 16 16 16 16 16 17 16 17 17 18 18 19 19 19 20 20 21 21 21 20
17 17 17 17 17 17 17 17 17 17 17 17 17 16 16 16 16 17 17 16 16 17 17 17 17 17 17 17 17 18 18 18 19 19 19 19 19 19 19 20 19 19 19
19 18 18 18 18 18 18 17 17 17 17 18 17 17 17 17 17 17 17 17 17 18 18 19 19 19 18 18 19 19 19 20 19 19 18 18 18 18 18 17 17 17 18
19 19 19 19 19 19 19 19 18 18 17 18 18 18 18 17 18 18 18 18 18 18 18 19 20 20 19 20 20 20 20 20 20 20 19 19 19 18 18 17 17 17 17
19 19 20 20 20 20 19 20 19 18 18 19 18 18 18 18 19 19 18 19 19 19 19 20 20 21 21 22 21 21 21 21 20 20 20 19 19 19 18 17 17 17 17
21 21 21 21 21 21 21 21 20 19 19 19 19 19 19 19 20 20 20 20 20 20 20 20 20 21 22 22 22 21 21 21 21 21 20 20 19 19 19 19 18 18 18
22 22 22 22 22 22 21 21 21 20 20 20 20 20 21 22 21 21 21 22 22 21 21 20 21 21 22 22 22 22 21 21 22 21 21 20 20 20 19 19 19 19 18
23 23 23 22 22 22 22 22 22 21 21 21 21 21 21 22 22 23 23 23 23 23 23 22 22 21 22 22 22 21 21 22 22 21 20 20 20 20 19 19 19 19 19
23 23 23 23 23 23 23 23 22 22 22 22 22 22 22 22 23 24 24 24 25 24 24 23 22 22 22 22 22 21 21 21 21 21 20 20 20 20 20 19 19 19 19
23 23 23 24 23 23 23 22 22 23 23 23 23 23 23 24 23 24 24 24 25 25 24 24 23 23 22 22 22 22 22 21 20 20 20 19 20 20 20 20 20 20 19
24 24 24 24 24 24 24 24 24 24 24 25 25 25 25 25 25 25 25 25 25 25 24 24 24 24 23 23 23 22 21 20 20 20 21 20 20 21 21 21 21 21 21
24 25 25 25 25 24 24 25 25 25 26 26 26 26 26 26 26 26 26 26 26 26 25 25 25 24 24 24 23 23 22 21 21 21 22 21 21 22 22 21 22 22 22
25 25 25 25 25 25 25 26 26 26 26 27 27 27 27 27 27 27 27 27 27 27 26 26 26 25 25 25 24 24 23 23 22 22 22 22 22 23 22 22 22 22 22
26 27 27 26 26 27 27 27 27 27 27 28 28 28 28 28 28 28 28 28 28 28 27 27 27 27 26 26 25 25 25 25 24 24 24 24 23 23 23 23 23 24 24
27 27 27 27 28 28 27 27 28 28 28 28 28 28 28 28 28 28 29 29 29 28 28 27 27 27 27 27 27 28 27 26 26 25 26 25 25 25 24 25 26 26 26

GEFSMA_500_meanwind_288.txt.gz
Wind_Speed
5 5 6 6 7 7 7 7 8 8 9 9 8 9 9 9 9 10 10 11 11 12 12 13 14 14 13 14 14 15 15 15 15 15 15 16 16 16 16 16 17 18 18
6 6 6 6 7 7 7 8 8 8 8 8 8 9 9 9 9 10 10 11 11 11 12 12 13 14 14 14 15 15 15 15 16 16 16 16 16 16 16 16 17 18 18
6 7 7 7 7 8 8 8 8 8 8 8 9 9 9 10 10 10 10 10 11 11 12 12 13 14 14 14 14 15 16 16 16 16 16 16 16 17 17 18 18 18 19
8 8 8 8 8 9 9 9 8 8 9 9 9 10 10 10 10 11 11 11 11 11 11 12 13 14 14 14 14 15 16 16 17 17 16 17 17 17 18 18 18 18 19
9 9 9 9 9 10 10 10 9 9 9 9 9 10 11 11 11 11 11 11 12 12 12 12 13 13 14 14 14 14 15 16 16 17 17 17 17 17 18 18 18 18 19
10 10 11 11 11 11 11 11 11 10 10 10 11 11 11 12 12 12 12 12 12 12 13 13 13 13 14 14 14 15 15 15 15 15 16 17 17 18 17 17 18 18 19
12 12 12 12 12 12 12 11 11 11 11 11 12 12 13 13 13 13 13 13 13 13 13 14 14 14 15 15 15 15 15 15 15 15 15 16 16 17 17 17 18 18 18
13 12 12 12 12 12 12 12 11 11 11 12 12 13 13 14 14 14 14 14 14 14 14 14 15 15 15 15 15 15 16 15 15 16 16 17 16 17 17 17 18 19 19
13 13 13 14 14 13 13 12 12 12 12 13 13 13 14 14 14 14 14 15 15 14 15 15 15 15 15 15 15 15 15 16 16 17 17 18 18 18 18 18 19 19 19
14 14 14 15 15 14 14 13 13 13 14 14 14 14 14 14 14 15 15 15 14 15 15 15 15 15 15 15 15 14 15 16 17 17 17 18 18 18 19 19 20 20 21
15 15 15 16 16 16 15 15 15 15 15 15 15 15 14 14 15 15 15 15 15 15 15 15 15 15 15 15 15 15 16 16 16 17 17 18 18 19 19 20 21 21 21
16 16 16 17 16 16 16 16 16 16 16 16 15 15 15 15 15 15 15 15 15 15 15 15 15 15 16 16 16 16 17 17 16 17 18 18 19 19 20 21 21 21 21
17 17 17 17 17 17 17 17 17 17 17 17 17 17 16 15 15 15 15 15 15 15 16 16 16 16 17 17 17 18 17 17 18 18 18 19 19 20 21 21 21 22 22
18 18 18 18 17 17 17 18 18 18 18 17 18 18 18 17 16 16 16 15 16 16 17 17 17 17 17 17 18 18 18 18 18 19 19 19 20 21 21 21 21 22 22
18 18 17 17 17 17 18 18 18 18 19 18 18 18 18 17 17 18 17 17 17 17 18 19 19 18 18 19 19 19 19 19 19 19 20 20 20 21 21 21 21 22 23
17 17 17 17 17 18 18 18 19 19 19 19 19 19 19 19 19 19 19 19 19 19 18 19 20 20 20 21 20 20 20 20 20 20 20 20 20 21 21 21 22 22 23
18 18 18 18 18 18 18 19 19 19 19 19 20 20 20 20 20 20 20 20 20 20 20 20 21 21 20 21 21 21 21 21 20 20 21 21 21 21 20 20 20 20 20
18 18 18 19 19 19 19 20 19 19 20 20 20 21 21 21 21 21 21 22 21 21 21 21 22 22 22 22 22 22 21 22 22 21 21 21 21 21 21 21 20 20 20
18 19 19 19 20 20 20 20 20 20 20 20 21 21 22 22 21 22 22 23 23 22 22 22 22 23 23 23 23 23 23 23 23 23 23 22 22 22 21 21 20 20 20
19 19 20 20 20 20 20 20 20 21 21 21 22 22 23 23 22 23 23 23 24 24 24 25 24 23 23 23 23 24 24 24 23 23 23 23 23 23 22 22 21 21 20
19 19 19 20 20 21 21 21 21 21 22 22 23 23 24 23 23 24 24 24 24 25 25 25 25 24 23 24 24 24 24 24 24 24 24 24 23 23 23 23 22 22 21
21 21 21 21 21 21 22 22 22 23 23 23 24 24 24 24 24 25 25 25 25 25 25 25 25 24 24 25 24 24 24 24 24 24 24 24 24 24 23 23 23 23 23
22 22 22 22 22 22 23 24 24 24 24 24 24 25 25 25 25 25 25 25 25 25 25 25 25 25 25 24 25 25 25 24 24 25 24 24 25 25 24 24 24 24 24
23 23 23 23 24 24 24 24 25 25 25 25 26 25 25 26 26 26 26 26 26 26 27 27 26 26 26 26 26 26 26 25 24 24 25 25 25 25 25 25 25 25 25
24 24 25 25 25 26 26 27 27 27 27 26 26 27 26 26 27 27 27 27 27 28 29 29 28 28 28 27 27 27 27 27 26 26 26 26 26 26 26 26 26 26 26
24 25 26 26 27 27 27 28 28 28 28 28 28 27 28 28 28 28 28 28 28 29 29 30 29 29 28 27 27 28 29 28 28 28 28 29 28 28 27 28 27 26 26

GEFSMA_500_meanwind_294.txt.gz
Wind_Speed
5 5 6 6 6 7 7 7 7 8 8 8 9 9 10 10 11 11 11 11 12 12 12 12 12 13 14 15 16 17 18 18 18 17 17 17 17 17 17 18 18 17 17
6 6 7 7 7 7 7 7 8 9 9 9 9 9 10 10 11 11 11 11 11 12 12 12 13 14 15 15 15 16 17 18 18 18 17 17 17 17 17 18 18 18 17
7 7 8 8 8 8 9 9 9 9 10 10 10 10 10 11 11 11 11 12 13 13 13 13 13 14 15 14 15 16 17 17 18 18 18 18 18 18 18 18 18 18 18
8 9 9 9 9 10 10 10 10 10 10 10 11 11 11 12 12 12 13 13 13 13 13 14 14 14 14 14 15 16 17 17 18 18 18 18 18 18 18 18 18 18 17
10 10 11 11 11 11 11 12 12 12 11 12 11 11 12 12 13 13 13 14 14 14 15 15 15 15 15 15 15 16 16 16 17 18 18 18 18 18 19 18 18 17 17
11 11 11 11 11 12 12 12 13 13 13 13 13 13 13 13 13 14 14 15 15 15 15 15 15 15 15 15 16 16 16 17 17 17 18 18 18 19 19 19 19 19 18
12 12 12 12 12 12 12 13 13 14 13 13 13 13 14 14 14 14 14 14 15 15 16 16 16 17 16 16 16 16 17 18 18 18 18 18 18 19 19 19 19 19 19
13 13 13 13 13 13 13 13 14 14 14 14 14 14 14 14 14 15 15 15 15 15 15 16 17 17 16 16 16 16 17 18 18 19 19 19 18 19 19 19 19 19 19
13 13 14 14 14 14 14 14 14 14 15 15 15 15 15 15 15 15 15 15 15 16 16 16 16 16 17 17 17 17 17 18 18 19 19 19 19 19 20 20 20 20 20
14 14 14 15 15 15 15 15 15 15 15 15 15 15 16 16 16 16 16 16 15 15 16 16 16 16 17 17 17 17 17 18 18 19 19 19 20 20 20 20 21 21 21
14 15 15 16 16 16 16 16 15 15 15 15 16 16 16 16 16 16 16 16 16 16 16 16 17 17 17 18 18 18 18 18 18 19 19 19 20 20 20 20 21 21 21
15 15 16 16 16 16 16 16 16 16 16 16 16 17 17 17 17 17 17 17 17 17 17 17 18 18 18 18 19 19 19 19 19 19 19 19 20 20 20 20 20 21 21
14 15 15 15 16 15 16 16 16 17 17 17 17 17 18 18 18 18 18 18 18 18 18 19 18 18 18 18 19 19 19 19 19 19 19 19 19 20 20 20 21 21 21
15 15 15 15 16 15 15 15 16 16 17 17 18 18 18 18 18 19 19 19 19 20 20 20 20 20 19 19 20 19 20 19 19 19 19 19 19 20 20 21 21 21 22
16 16 16 16 16 16 16 16 16 17 17 18 18 19 19 19 19 20 20 20 21 21 20 21 21 21 20 21 21 21 21 21 21 20 20 20 20 20 21 21 21 22 22
16 16 17 17 17 17 17 17 18 18 18 18 18 19 19 20 20 20 20 20 21 21 21 21 21 22 22 22 22 22 22 22 22 22 21 21 21 21 21 21 22 22 22
17 18 17 17 17 18 17 18 18 18 19 19 19 20 20 21 21 21 21 21 21 21 22 22 22 22 22 22 22 23 23 24 24 23 22 22 22 22 22 22 23 23 23
18 18 18 18 18 18 19 19 19 20 20 20 20 21 21 21 21 21 21 22 22 22 23 22 22 23 23 23 23 24 24 24 25 25 25 24 23 23 23 23 23 23 23
19 19 19 19 20 20 20 20 20 21 21 21 21 21 22 22 22 22 23 23 23 24 24 23 23 24 24 24 24 24 24 25 25 25 25 25 25 25 24 24 24 24 24
20 20 20 20 20 21 21 21 21 21 21 22 22 22 23 23 23 24 24 24 24 25 25 24 24 25 25 25 25 25 25 26 26 26 26 26 26 26 25 25 25 25 25
21 21 21 21 21 21 21 21 21 21 22 23 23 23 24 24 24 24 24 25 25 25 25 25 25 26 26 26 26 26 26 26 27 27 27 27 27 27 27 26 26 26 25
21 21 22 22 22 22 22 23 23 22 23 24 24 24 25 25 25 25 25 26 26 26 25 25 25 26 26 26 26 26 27 27 27 27 28 28 28 28 29 28 28 28 27
22 22 23 23 23 23 23 23 24 24 24 25 25 25 25 26 26 26 26 26 26 25 26 26 26 26 27 27 27 27 27 28 28 29 29 29 28 29 29 29 29 29 28
22 23 23 23 23 23 24 25 25 25 26 26 26 26 26 26 26 26 26 26 26 26 27 27 27 27 28 28 28 28 28 29 29 30 30 30 29 29 29 29 30 30 29
23 24 24 24 24 24 25 26 26 26 26 26 26 26 26 26 26 26 27 27 27 28 28 28 28 29 29 29 29 29 29 29 30 30 30 30 30 30 30 30 30 30 30
25 25 25 25 25 26 26 26 26 26 26 25 26 26 26 27 27 27 28 28 28 29 30 30 30 30 30 30 30 30 31 31 31 31 31 32 31 31 31 30 31 31 30

GEFSMA_500_meanwind_300.txt.gz
Wind_Speed
5 5 5 5 6 6 7 8 8 9 9 9 9 9 9 10 11 11 12 12 13 13 14 15 15 16 16 16 16 16 16 16 17 17 17 18 18 18 18 18 18 18 18
6 6 7 7 7 7 8 8 9 9 10 10 11 11 11 11 12 13 13 13 13 13 14 15 15 15 16 15 15 16 16 17 17 18 18 19 18 18 18 18 18 18 18
7 8 8 9 9 9 9 9 10 11 11 11 12 12 12 12 12 13 14 15 15 15 15 15 15 14 14 15 15 16 17 17 18 19 19 19 19 19 18 18 18 18 18
8 9 10 10 11 11 11 11 11 12 12 13 13 13 13 13 13 14 14 15 15 16 16 16 16 15 15 15 16 16 17 18 18 19 19 19 19 19 19 19 19 18 18
10 11 11 11 12 13 13 13 13 13 13 14 14 14 14 14 14 14 15 15 15 16 16 16 17 16 15 16 16 17 17 18 18 19 19 19 20 20 20 20 20 20 19
11 11 12 12 13 13 13 14 14 14 14 15 16 16 16 16 16 16 15 16 16 16 16 16 17 16 16 17 17 17 18 18 18 19 19 19 19 20 20 20 20 20 20
12 12 13 13 13 13 13 13 14 14 14 15 16 16 17 17 17 17 16 16 16 16 16 17 17 17 17 18 17 17 17 18 18 19 19 20 20 20 20 20 20 19 20
14 14 13 13 13 13 13 14 14 15 15 15 16 16 16 17 17 17 17 17 17 17 17 18 18 17 17 17 18 18 17 17 18 18 19 20 20 20 20 20 20 20 20
14 14 14 14 14 14 14 14 14 15 15 15 16 16 16 17 17 17 17 17 17 17 17 18 18 18 17 18 18 17 18 18 18 18 19 19 20 20 20 20 21 21 21
14 14 14 15 14 14 14 14 14 15 15 16 16 17 17 17 18 18 18 18 18 18 18 18 18 18 18 18 18 19 18 18 18 19 19 19 20 20 20 21 21 21 21
14 14 14 14 13 13 13 14 14 14 15 15 16 16 17 17 18 18 18 18 19 19 19 19 19 18 18 18 19 19 19 19 19 20 20 19 20 20 21 21 21 21 21
14 14 13 13 13 13 13 14 14 14 14 15 15 16 16 17 18 19 19 19 19 19 19 19 19 19 19 19 19 19 20 20 20 20 20 20 20 21 21 21 21 21 21
14 14 14 14 14 14 14 14 14 15 15 15 16 16 16 17 18 19 19 20 20 20 20 20 20 20 20 19 20 20 21 21 21 21 21 21 21 21 21 21 21 21 21
14 14 14 14 15 14 15 15 15 15 15 15 16 16 17 17 18 18 19 19 20 21 21 21 21 21 21 21 21 21 22 22 22 22 22 22 22 22 21 21 21 21 21
14 14 14 14 14 14 15 15 15 16 16 16 16 17 18 18 19 19 19 19 20 21 22 22 22 22 22 22 22 22 22 22 22 22 22 22 22 23 23 23 23 22 22
15 15 15 15 15 15 15 15 15 16 16 17 17 18 19 20 20 20 20 21 21 22 22 22 23 23 23 23 23 23 23 23 23 23 23 23 23 23 23 23 23 23 23
15 16 15 16 15 16 16 16 16 17 17 18 19 19 19 19 20 21 21 22 22 22 23 23 23 24 23 23 23 23 23 23 23 23 23 23 23 23 24 24 24 24 24
16 16 16 16 17 17 18 18 18 19 19 18 19 20 20 20 21 21 22 22 23 23 23 23 23 23 24 24 24 24 24 24 24 24 24 24 24 24 24 24 25 25 25
17 17 17 17 18 18 19 19 19 19 19 20 20 20 21 22 22 23 23 24 24 24 24 24 24 24 24 24 25 25 25 25 25 25 25 24 25 25 25 26 26 26 26
17 17 18 18 18 18 19 19 19 20 21 21 21 22 22 22 23 24 24 25 25 25 25 25 25 25 24 25 25 26 26 26 26 25 25 25 26 26 26 26 27 26 26
18 18 18 18 18 19 19 20 20 21 21 22 23 23 23 23 24 24 25 25 25 25 25 25 25 25 25 25 26 26 26 26 26 26 26 27 27 27 27 27 28 28 28
19 19 19 19 20 20 20 21 21 22 22 22 23 24 24 24 24 24 24 24 25 25 25 26 26 26 26 26 26 26 26 26 27 27 28 28 28 28 27 27 28 29 29
21 21 21 21 21 21 22 22 22 23 23 23 24 24 24 24 24 24 24 25 26 26 26 27 27 27 27 27 27 27 27 27 27 29 29 30 30 29 29 29 29 29 29
22 22 22 22 22 22 23 23 23 24 24 24 23 23 23 23 24 24 24 25 25 26 26 27 27 27 27 27 27 27 27 28 28 29 30 30 31 31 31 30 30 30 30
23 23 23 23 23 23 23 24 24 25 25 24 24 23 23 24 24 24 24 25 25 26 26 27 26 27 27 27 27 28 28 29 29 29 30 31 31 31 32 32 31 32 32
24 24 24 25 24 24 24 25 25 25 25 24 24 24 24 24 24 25 25 25 26 27 27 27 27 28 28 29 29 29 29 30 30 31 31 32 32 32 32 33 33 32 33

GEFSMA_500_meanwind_306.txt.gz
Wind_Speed
6 7 7 6 7 7 8 8 8 9 8 9 9 10 9 10 11 11 11 11 12 12 13 13 14 14 15 15 16 16 17 17 16 15 16 15 15 15 16 15 16 16 16
7 8 8 8 8 9 9 9 10 10 10 10 10 10 10 11 12 12 13 13 13 14 14 14 15 15 15 15 16 16 16 16 17 16 16 16 16 15 15 15 16 15 15
9 9 9 10 10 11 11 11 12 12 12 12 12 12 13 13 13 14 14 14 15 15 15 15 15 15 15 15 16 16 15 15 16 16 16 16 16 16 16 16 16 16 16
10 10 10 10 11 11 12 12 13 14 14 14 14 14 15 14 14 15 15 15 15 15 15 15 16 15 15 15 15 15 15 15 16 16 16 17 18 18 17 17 17 17 17
10 11 11 11 12 12 12 13 14 14 15 15 15 16 16 16 15 15 15 15 15 15 15 15 15 15 15 15 15 15 16 16 16 16 16 17 17 18 17 17 17 18 18
11 12 11 12 13 13 13 14 15 15 15 15 16 16 16 16 16 16 16 15 15 15 15 15 15 15 15 15 15 15 16 16 17 16 16 17 17 18 18 19 19 18 18
13 13 13 13 13 14 15 15 15 16 16 16 16 16 16 16 16 16 16 16 16 16 16 16 15 16 16 16 16 16 16 16 16 16 17 17 17 18 18 19 19 19 19
14 14 14 14 14 15 15 15 15 15 15 16 16 16 16 16 16 16 16 16 16 16 17 17 16 16 16 16 16 16 17 16 16 16 16 17 17 18 18 18 19 19 19
15 15 15 15 15 15 15 15 15 15 15 15 15 15 16 16 16 16 17 17 17 17 17 17 17 17 17 16 17 17 17 17 17 17 17 18 18 18 18 18 19 20 20
15 15 15 15 15 15 15 15 15 15 15 15 15 16 16 16 17 17 17 17 18 18 18 18 17 18 17 18 18 17 17 17 18 18 18 19 19 19 19 19 20 20 20
15 15 15 15 16 16 16 16 16 15 15 15 15 16 16 16 17 17 17 17 18 18 18 18 18 19 18 18 18 18 18 18 19 19 19 20 20 19 20 19 19 20 20
16 16 16 16 16 16 16 16 16 16 16 16 16 16 16 17 17 17 18 18 18 19 19 20 20 20 19 19 19 19 19 19 20 20 20 20 19 19 19 19 19 19 20
16 16 16 17 17 17 16 16 16 16 16 16 16 16 17 17 17 17 18 18 18 18 19 20 20 20 20 20 20 20 20 20 20 21 21 20 20 20 20 20 20 20 20
15 16 16 17 17 16 16 16 16 16 16 16 16 16 17 17 18 18 18 18 19 19 19 20 20 20 20 20 20 20 21 21 21 21 21 21 21 21 21 21 20 20 20
15 15 16 15 16 16 15 16 16 17 17 17 17 17 17 18 18 19 19 20 20 20 20 20 20 20 21 21 20 21 21 21 21 21 20 21 22 22 22 21 21 20 20
16 16 16 16 16 16 16 17 17 17 17 18 18 19 19 19 20 20 20 20 21 20 20 20 21 21 21 22 22 22 22 22 22 22 21 22 22 22 23 22 22 21 21
17 16 16 17 17 17 17 18 18 18 18 19 19 20 20 21 21 20 20 20 21 21 21 21 22 21 22 22 22 22 23 23 24 24 24 23 23 23 23 23 23 23 22
17 17 17 18 18 18 18 18 19 19 20 20 21 21 21 21 21 21 21 21 21 22 22 22 22 23 23 23 23 22 23 23 24 24 24 24 24 24 23 23 23 23 23
18 18 18 18 19 19 19 19 20 20 21 22 22 22 22 22 22 22 22 22 22 22 22 23 23 23 23 23 23 23 24 23 24 25 24 24 24 24 24 24 23 23 24
20 20 20 20 20 20 20 20 21 22 22 23 23 22 22 22 22 23 23 23 23 22 23 23 23 24 24 24 24 24 25 25 25 25 25 25 25 25 25 25 24 24 24
21 21 21 21 21 21 21 21 22 23 23 24 24 24 24 23 23 23 23 23 24 24 24 24 24 24 24 24 24 25 25 25 25 26 27 27 27 26 26 26 26 26 25
23 23 23 22 22 22 23 23 24 24 24 24 24 24 24 24 24 24 24 24 24 24 24 24 24 24 24 24 24 24 25 25 25 26 26 27 27 27 27 27 27 27 27
25 24 24 23 23 23 24 24 25 25 24 24 24 24 24 24 24 24 25 25 25 25 24 25 25 24 24 25 25 25 26 26 26 26 26 27 27 27 28 28 28 28 28
25 25 25 24 24 24 24 24 25 25 25 25 24 24 24 24 24 24 24 25 25 25 25 26 26 26 26 26 26 26 26 26 26 26 27 27 27 28 29 29 30 30 30
26 26 26 25 25 25 25 25 26 25 25 25 25 25 25 25 25 25 25 25 25 26 26 27 27 27 27 27 27 27 26 26 26 27 27 28 28 28 29 30 30 31 31
27 27 27 26 26 26 26 26 27 26 26 25 25 25 25 26 26 26 26 26 26 27 27 27 27 28 28 28 28 28 27 27 27 27 28 29 29 29 29 30 31 31 32

GEFSMA_500_meanwind_312.txt.gz
Wind_Speed
6 7 7 7 7 7 7 7 7 8 8 8 8 8 8 9 9 10 10 10 10 11 12 12 12 13 13 13 13 14 15 15 17 17 17 17 16 16 16 16 16 17 16
7 7 8 8 8 9 9 9 9 9 9 9 10 10 9 9 9 10 10 10 11 13 13 13 13 13 13 14 14 14 15 15 15 15 15 16 16 16 16 16 17 17 17
8 8 8 9 9 10 10 10 10 11 11 11 11 10 10 11 11 11 12 12 12 13 13 13 13 14 14 15 15 14 15 15 15 15 15 16 16 16 17 18 18 18 18
8 8 9 9 10 10 11 11 11 11 11 12 12 13 13 13 13 13 13 13 13 13 13 13 13 13 13 14 14 13 13 14 15 15 16 17 17 17 17 18 19 19 19
8 9 9 10 10 10 10 11 11 12 12 13 13 13 13 14 14 14 14 14 14 14 13 14 14 14 13 13 14 14 14 15 16 16 16 17 17 17 18 18 19 19 19
9 9 10 10 10 11 11 11 12 12 12 13 13 13 13 14 14 14 14 14 14 14 13 14 14 14 14 14 14 14 14 15 15 16 16 17 18 18 18 19 19 19 19
10 10 10 10 11 11 12 12 13 13 13 13 13 13 14 14 14 14 15 15 14 14 14 14 15 14 14 14 14 14 15 15 16 16 16 17 17 18 19 19 19 19 20
11 11 11 11 11 12 12 13 13 14 14 14 14 14 14 14 15 15 15 15 15 15 15 15 16 16 16 15 15 15 15 16 16 16 17 18 18 18 19 19 19 19 20
11 12 12 12 12 12 13 13 13 13 13 14 14 14 14 14 14 14 15 15 15 16 16 16 16 17 16 17 16 16 16 16 16 16 16 17 18 19 19 20 20 20 20
12 13 13 13 13 13 13 14 13 13 14 14 14 14 14 14 14 14 15 16 16 16 16 16 16 17 17 17 18 18 18 17 17 16 17 17 18 19 20 20 20 20 19
13 13 13 13 14 14 14 14 14 14 14 15 15 15 15 15 15 15 15 16 16 17 17 17 17 17 18 19 19 19 18 18 18 17 18 18 18 18 19 19 19 19 19
14 13 13 14 14 14 14 15 15 15 15 15 15 15 15 15 15 16 16 16 16 17 17 18 18 18 19 19 19 19 18 18 18 18 18 18 18 18 19 19 19 19 19
15 15 14 14 14 15 15 15 15 16 16 16 16 16 16 16 16 16 16 17 17 18 18 18 19 19 19 20 19 19 19 19 18 18 18 18 18 19 19 19 19 19 20
16 15 15 15 15 15 15 16 16 16 16 16 16 16 16 17 17 17 17 17 17 18 19 20 20 19 20 20 20 20 20 20 20 19 20 20 20 19 19 19 20 20 20
16 16 16 15 16 16 16 16 16 16 17 17 17 18 18 18 18 18 18 18 18 18 18 19 20 21 21 21 21 21 21 21 21 21 21 21 21 20 20 20 20 20 20
16 17 17 17 17 17 17 17 17 17 18 18 18 18 18 18 19 19 19 19 19 18 18 19 20 20 21 22 22 21 22 22 22 22 22 22 22 22 21 21 21 20 20
18 18 17 17 17 17 18 18 18 18 19 18 18 18 18 18 18 19 19 19 19 19 19 19 20 21 21 22 22 22 22 22 22 23 23 23 23 23 23 23 22 22 22
18 18 18 18 18 18 18 18 19 19 19 18 18 18 18 18 18 18 19 19 19 19 19 19 20 21 22 22 22 22 22 22 23 23 23 23 23 24 24 24 23 23 22
19 19 19 19 19 19 19 19 20 19 19 18 18 18 18 18 19 19 19 20 20 20 20 20 21 21 22 23 22 23 23 23 23 23 23 23 23 24 24 24 24 23 23
20 20 20 20 20 20 20 20 20 20 19 19 19 20 20 20 20 20 20 21 21 21 21 21 21 21 22 23 22 22 22 23 23 24 24 24 23 23 24 24 24 24 24
21 21 21 21 21 21 21 21 21 20 20 20 20 20 20 20 20 21 21 21 22 22 22 22 22 22 22 22 23 23 22 23 23 24 24 25 25 24 25 25 25 25 26
22 22 22 22 22 22 22 22 21 21 21 21 21 21 21 21 22 22 22 22 22 22 22 22 22 22 22 22 22 23 23 23 24 25 25 26 26 25 26 26 25 26 26
23 23 23 23 22 23 23 23 22 22 22 22 22 22 23 23 23 23 23 23 23 23 22 22 22 22 22 22 22 23 23 24 24 25 25 25 26 26 26 26 27 27 28
24 24 24 23 23 23 23 23 22 23 23 23 23 23 23 23 24 24 24 24 23 23 23 23 23 23 23 23 23 23 24 24 25 26 26 27 27 27 28 28 28 28 29
25 25 24 24 24 24 24 24 23 23 24 24 24 24 24 24 24 24 24 24 24 24 24 24 24 24 24 24 24 24 24 24 25 26 26 27 27 28 28 29 29 29 29
26 27 26 26 25 25 25 25 25 25 25 25 25 25 25 25 25 25 25 25 25 25 25 25 25 25 25 25 25 25 26 26 26 26 26 27 27 28 28 29 30 30 30